Location: ????????
(55.3155°N, 39.2900°E)
Time: 18:13:18
(UTC+00:00)

ACS3 Solar Sail - Pass Details

Date: 16 November 2025
Orbit: 889 x 1003 km, 97.3° (Epoch: 06 December)

Event Time Altitude Azimuth Distance (km) Brightness Sun altitude
Rises 23:17:28 0° 20° (NNE) 3,565 5.4 -46.2°
Reaches altitude 10° 23:20:34 10° 37° (NE) 2,638 4.6 -45.9°
Enters shadow 23:22:37 17° 55° (NE) 2,192 4.1 -45.7°
